[[{"header":{"parameterUnit":"m.s-1","parameterCategory":1,"la1":30.2991,"la2":30.254,"lo1":-89.0895,"lo2":-89.0444,"dy":0.0017,"dx":0.0017,"nx":28,"ny":28,"refTime":"2024-02-12T03:00:00:Z","depth":0,"parameterNumber":2,"parameterNumberName":"U-component_of_WINDS"},"data":[0,0,0,0,0,0,0,0,0,0,0,0,0,0,0,0,0,0,0,0,0,0,0,0,0,0,0,0,0,0,0,0,0,0,0,0,0,0,0,0,0,0,0,0,0,0,0,0,0,0,0,0,0,0,0,0,0,0,-1.0595,-1.0595,0,-1.0617,-1.0617,-1.0617,-1.0606,-1.0605,-1.0605,-1.0604,-1.0628,-1.063,-1.0631,0,0,0,0,0,0,0,0,0,0,0,0,0,-1.0546,-1.0547,-1.0595,-1.0595,-1.0595,-1.0617,-1.0617,-1.0617,-1.0606,-1.0605,-1.0605,-1.0604,-1.0628,-1.0629,-1.0631,0,0,0,0,0,0,0,0,0,0,0,0,0,-1.0567,-1.0547,-1.0595,-1.0592,-1.0592,-1.0617,-1.0617,-1.0618,-1.0606,-1.0605,-1.0604,-1.0604,-1.0628,-1.0629,-1.0631,-1.066,0,0,-1.0637,-1.0637,0,0,0,0,0,0,0,0,-1.0566,-1.0569,-1.0592,-1.0593,-1.0593,-1.0608,-1.0609,-1.0632,-1.0606,-1.0601,-1.0604,-1.0603,-1.0622,-1.0625,-1.0631,-1.0661,-1.0662,-1.0637,-1.0638,-1.0639,-1.0639,0,0,0,0,0,0,0,-1.0565,-1.0568,-1.0604,-1.0593,-1.0593,-1.0591,-1.0593,-1.0613,-1.0616,-1.0601,-1.0601,-1.0603,-1.0622,-1.0629,-1.0631,-1.0662,-1.0637,-1.0638,-1.0639,-1.064,-1.0718,-1.0719,0,0,0,0,0,0,-1.0563,-1.0567,-1.0603,-1.0604,-1.0577,-1.0593,-1.0595,-1.0604,-1.0616,-1.0617,-1.0604,-1.0603,-1.0626,-1.0629,-1.0632,-1.0666,-1.0639,-1.064,-1.0641,-1.0717,-1.0719,-1.072,0,0,0,0,0,0,-1.0562,-1.0566,-1.0602,-1.0585,-1.059,-1.0594,-1.0604,-1.0605,-1.0611,-1.0618,-1.0619,-1.061,-1.0626,-1.0629,-1.0653,-1.0667,-1.0641,-1.0643,-1.0716,-1.0718,-1.0719,-1.0735,0,0,0,0,0,0,-1.0561,-1.0566,-1.0576,-1.0586,-1.0591,-1.0622,-1.0605,-1.0606,-1.0614,-1.0613,-1.0624,-1.0625,-1.0625,-1.065,-1.0655,-1.0669,-1.0644,-1.0715,-1.0717,-1.0719,-1.0733,-1.0737,-1.074,0,0,0,0,0,-1.0559,-1.058,-1.0577,-1.0581,-1.0603,-1.0623,-1.0626,-1.0625,-1.0615,-1.0626,-1.0631,-1.0625,-1.0665,-1.0653,-1.0658,-1.0673,-1.0714,-1.0716,-1.0719,-1.0732,-1.0736,-1.074,0,0,0,0,0,0,-1.0572,-1.0581,-1.0578,-1.0602,-1.0612,-1.0621,-1.0634,-1.063,-1.0642,-1.064,-1.064,-1.0643,-1.0667,-1.0673,-1.0659,-1.0702,-1.0688,-1.0692,-1.0697,-1.0701,-1.0704,-1.0702,-1.0646,0,0,0,0,0,-1.0578,-1.0592,-1.06,-1.0621,-1.0626,-1.0629,-1.0638,-1.0636,-1.0646,-1.065,-1.0657,-1.0667,-1.0683,-1.0692,-1.0707,-1.0735,-1.0737,-1.0748,-1.0751,-1.0754,-1.0756,-1.0772,-1.0777,-1.0727,-1.0727,-1.0727,0,0,-1.059,-1.0597,-1.0606,-1.0624,-1.0631,-1.0646,-1.0632,-1.0649,-1.0661,-1.0653,-1.0675,-1.0681,-1.0693,-1.0719,-1.0731,-1.0724,-1.0771,-1.0757,-1.0759,-1.076,-1.0775,-1.078,-1.0784,-1.0729,-1.0728,-1.0728,0,0,-1.0619,-1.0626,-1.0644,-1.0652,-1.0663,-1.0665,-1.067,-1.068,-1.0683,-1.0705,-1.07,-1.0715,-1.0741,-1.075,-1.0758,-1.0792,-1.0787,-1.0797,-1.0814,-1.083,-1.0834,-1.0837,-1.0849,-1.0854,-1.08,-1.08,-1.08,0,-1.0633,-1.0655,-1.0654,-1.0671,-1.068,-1.0674,-1.0693,-1.0701,-1.0716,-1.0723,-1.0715,-1.0748,-1.0756,-1.0784,-1.0793,-1.08,-1.0805,-1.0795,-1.0833,-1.0837,-1.084,-1.0851,-1.0856,-1.0801,-1.0801,-1.0801,-1.0801,0,-1.0671,-1.0686,-1.07,-1.0714,-1.0725,-1.0743,-1.0746,-1.0757,-1.0755,-1.0759,-1.0783,-1.0792,-1.0808,-1.0815,-1.0814,-1.0844,-1.0839,-1.0833,-1.0819,-1.0846,-1.0856,-1.0861,-1.0803,-1.0802,-1.0802,-1.0802,0,0,-1.0707,-1.0722,-1.0727,-1.0734,-1.0746,-1.0759,-1.0778,-1.0793,-1.0802,-1.0814,-1.0829,-1.0853,-1.0847,-1.0856,-1.0856,-1.087,-1.0897,-1.0862,-1.0862,-1.0867,-1.093,-1.0934,-1.0939,-1.0895,-1.0895,-1.0896,-1.0929,0,-1.0736,-1.0767,-1.0768,-1.0797,-1.0812,-1.0808,-1.0824,-1.0834,-1.0839,-1.0853,-1.0858,-1.0874,-1.0865,-1.0871,-1.0884,-1.0891,-1.0909,-1.0889,-1.0909,-1.091,-1.0904,-1.0944,-1.0948,-1.0978,-1.0933,-1.0934,-1.0934,0,-1.0774,-1.0786,-1.0816,-1.0828,-1.0834,-1.0848,-1.0863,-1.0876,-1.0889,-1.0891,-1.0902,-1.0901,-1.0921,-1.0908,-1.0936,-1.0922,-1.0931,-1.0936,-1.0937,-1.0938,-1.0922,-1.0945,-1.0988,-1.0992,-1.0941,-1.094,-1.094,0,-1.0796,-1.0821,-1.0842,-1.0848,-1.0862,-1.0872,-1.0879,-1.089,-1.09,-1.0913,-1.092,-1.0936,-1.0945,-1.0958,-1.0962,-1.0952,-1.099,-1.0977,-1.0992,-1.0992,-1.0999,-1.0998,-1.1043,-1.1007,-1.1007,-1.1007,-1.1007,0,-1.0828,-1.0847,-1.0852,-1.0865,-1.0886,-1.0888,-1.0909,-1.0915,-1.0925,-1.094,-1.0939,-1.0953,-1.0957,-1.0973,-1.0976,-1.0999,-1.1003,-1.1006,-1.1007,-1.1005,-1.1005,-1.101,-1.1008,-1.1008,-1.1008,-1.1008,-1.1008,0,-1.0856,-1.086,-1.0883,-1.0894,-1.0898,-1.0913,-1.0923,-1.0936,-1.0941,-1.096,-1.0965,-1.0973,-1.0991,-1.0996,-1.1019,-1.1021,-1.1047,-1.1047,-1.1043,-1.1042,-1.1057,-1.1055,-1.1105,-1.1112,-1.1073,-1.1074,-1.1074,0,-1.0875,-1.0889,-1.0902,-1.0911,-1.0918,-1.0934,-1.0943,-1.0947,-1.0957,-1.0973,-1.0984,-1.1002,-1.1016,-1.1046,-1.1054,-1.1072,-1.1071,-1.1087,-1.1073,-1.1072,-1.107,-1.1068,-1.107,-1.1089,-1.1089,-1.109,-1.109,0,-1.0908,-1.091,-1.0924,-1.0939,-1.095,-1.0963,-1.0974,-1.0983,-1.0988,-1.1,-1.1018,-1.1029,-1.1052,-1.107,-1.1088,-1.1096,-1.1094,-1.1095,-1.1099,-1.1097,-1.1094,-1.1095,-1.1049,-1.1093,-1.1093,-1.1093,-1.1092,-1.1092,-1.0931,-1.0944,-1.0955,-1.0971,-1.098,-1.0991,-1.1004,-1.1011,-1.1026,-1.1044,-1.1046,-1.1065,-1.1079,-1.1102,-1.1112,-1.1128,-1.1123,-1.113,-1.1131,-1.1132,-1.1133,-1.1093,-1.1131,-1.1131,-1.1131,-1.1131,-1.1131,0,-1.0964,-1.0971,-1.0986,-1.1002,-1.1015,-1.1012,-1.1026,-1.1037,-1.1054,-1.1066,-1.108,-1.1102,-1.1119,-1.113,-1.1148,-1.1159,-1.1159,-1.1164,-1.1162,-1.1164,-1.1136,-1.113,-1.1164,-1.1164,-1.1164,-1.1164,-1.1164,-1.1164,-1.0982,-1.1003,-1.1006,-1.1032,-1.104,-1.1058,-1.1066,-1.1077,-1.1087,-1.111,-1.1125,-1.1132,-1.1144,-1.1163,-1.118,-1.1182,-1.1189,-1.1194,-1.1196,-1.117,-1.1166,-1.1163,-1.1157,-1.1196,-1.1196,-1.1223,-1.1223,-1.1223]},{"header":{"parameterUnit":"m.s-1","parameterCategory":1,"la1":30.2991,"la2":30.254,"lo1":-89.0895,"lo2":-89.0444,"dy":0.0017,"dx":0.0017,"nx":28,"ny":28,"refTime":"2024-02-12T03:00:00:Z","depth":0,"parameterNumber":3,"parameterNumberName":"V-component_of_WINDS"},"data":[0,0,0,0,0,0,0,0,0,0,0,0,0,0,0,0,0,0,0,0,0,0,0,0,0,0,0,0,0,0,0,0,0,0,0,0,0,0,0,0,0,0,0,0,0,0,0,0,0,0,0,0,0,0,0,0,0,0,4.3454,4.3456,0,4.3644,4.3646,4.3648,4.3669,4.3667,4.3665,4.3663,4.3861,4.3868,4.3875,0,0,0,0,0,0,0,0,0,0,0,0,0,4.3112,4.3118,4.3453,4.3456,4.3458,4.3643,4.3646,4.3649,4.3669,4.3667,4.3665,4.3662,4.3858,4.3867,4.3875,0,0,0,0,0,0,0,0,0,0,0,0,0,4.3277,4.312,4.3453,4.3491,4.3496,4.3643,4.3646,4.3649,4.367,4.3667,4.3664,4.3661,4.3856,4.3866,4.3876,4.4,0,0,4.3909,4.3913,0,0,0,0,0,0,0,0,4.3267,4.3289,4.3483,4.3488,4.3495,4.363,4.3598,4.3767,4.367,4.3604,4.3663,4.366,4.3786,4.3802,4.3845,4.4009,4.4017,4.391,4.3916,4.3921,4.3924,0,0,0,0,0,0,0,4.3256,4.3281,4.3529,4.3486,4.3493,4.3499,4.352,4.363,4.3709,4.3609,4.3611,4.3633,4.3789,4.3834,4.3849,4.402,4.3909,4.3919,4.3925,4.3929,4.4299,4.4302,0,0,0,0,0,0,4.3237,4.3272,4.3523,4.3534,4.3371,4.3508,4.353,4.3589,4.3708,4.3723,4.3636,4.3634,4.3818,4.3837,4.3856,4.4012,4.3921,4.393,4.3937,4.4295,4.4299,4.4303,0,0,0,0,0,0,4.323,4.3259,4.3515,4.3404,4.3437,4.3517,4.3583,4.3594,4.364,4.3728,4.3742,4.3667,4.3816,4.3841,4.3964,4.4019,4.3935,4.3945,4.4291,4.4297,4.4301,4.4321,0,0,0,0,0,0,4.322,4.3256,4.3303,4.3405,4.3443,4.3619,4.3586,4.36,4.3658,4.3657,4.3761,4.3776,4.3816,4.3949,4.3975,4.4032,4.3953,4.4287,4.4294,4.43,4.4316,4.4326,4.4335,0,0,0,0,0,4.3207,4.3301,4.3305,4.3336,4.3503,4.3622,4.3644,4.3687,4.3662,4.3711,4.3767,4.3773,4.4007,4.3961,4.3991,4.4052,4.4284,4.4292,4.4299,4.4312,4.4324,4.4335,0,0,0,0,0,0,4.3205,4.3315,4.3321,4.345,4.3526,4.3625,4.3688,4.3699,4.3785,4.378,4.3831,4.3855,4.3976,4.4026,4.3972,4.4179,4.4143,4.4157,4.4143,4.4155,4.4165,4.4152,4.3962,0,0,0,0,0,4.3219,4.3306,4.3397,4.3502,4.354,4.3607,4.3661,4.3688,4.3769,4.3802,4.3868,4.3948,4.404,4.41,4.4189,4.4322,4.4347,4.4379,4.4388,4.4395,4.4408,4.4486,4.4502,4.4329,4.4329,4.4329,0,0,4.325,4.3321,4.3372,4.3504,4.3566,4.3657,4.3635,4.373,4.3799,4.3817,4.3938,4.3989,4.4081,4.4211,4.4271,4.4256,4.4461,4.4405,4.4411,4.442,4.4496,4.4512,4.4527,4.4334,4.4333,4.4332,0,0,4.3353,4.3413,4.3509,4.3572,4.3667,4.3711,4.3734,4.3831,4.3866,4.3988,4.4004,4.4086,4.4243,4.4309,4.4363,4.4492,4.4502,4.452,4.4571,4.4646,4.466,4.4672,4.4722,4.4739,4.4531,4.4532,4.4532,0,4.338,4.3516,4.3557,4.3654,4.3713,4.3732,4.3831,4.389,4.4009,4.405,4.403,4.4229,4.4293,4.444,4.4471,4.4513,4.4543,4.451,4.4654,4.4667,4.468,4.4728,4.4746,4.4533,4.4533,4.4533,4.4533,0,4.3546,4.364,4.3706,4.3821,4.3887,4.3983,4.4042,4.4103,4.4124,4.417,4.4296,4.4372,4.4479,4.4515,4.4536,4.4666,4.4654,4.4643,4.461,4.4697,4.4744,4.4762,4.4536,4.4535,4.4535,4.4534,0,0,4.3655,4.3792,4.3816,4.3869,4.3975,4.4049,4.4148,4.4251,4.4305,4.4386,4.4472,4.4605,4.4596,4.4658,4.4686,4.4752,4.4854,4.4734,4.4737,4.4757,4.5006,4.5016,4.5037,4.4859,4.4862,4.4865,4.5,0,4.3774,4.3949,4.399,4.4142,4.4231,4.4251,4.4337,4.4412,4.4458,4.4541,4.4592,4.4687,4.4667,4.4705,4.477,4.4827,4.4905,4.4818,4.4943,4.4947,4.4923,4.506,4.5071,4.5194,4.5017,4.5021,4.5023,0,4.3936,4.4021,4.4182,4.4278,4.4317,4.4394,4.4494,4.4572,4.4658,4.4687,4.4756,4.4778,4.4884,4.4841,4.4989,4.4929,4.4982,4.5018,4.5024,4.5041,4.4993,4.5085,4.5234,4.5254,4.5051,4.5049,4.5047,0,4.4005,4.4159,4.4276,4.4321,4.4435,4.4489,4.4539,4.4622,4.4682,4.4769,4.481,4.4907,4.4962,4.5038,4.5087,4.5051,4.5233,4.5193,4.5263,4.5262,4.5303,4.5301,4.5467,4.533,4.533,4.5329,4.5329,0,4.4136,4.4234,4.4309,4.4382,4.4493,4.4539,4.4649,4.4699,4.4773,4.4857,4.4878,4.4957,4.5014,4.5101,4.514,4.5259,4.5282,4.5311,4.5321,4.5311,4.5308,4.535,4.5344,4.5334,4.5333,4.5332,4.5331,0,4.4233,4.4286,4.4416,4.4513,4.454,4.4618,4.4702,4.4774,4.482,4.4926,4.4954,4.5026,4.513,4.5185,4.5314,4.5341,4.5475,4.5478,4.5446,4.5452,4.5519,4.5514,4.5722,4.5753,4.5591,4.5592,4.5593,0,4.4315,4.4392,4.4497,4.4554,4.4605,4.4697,4.4759,4.4807,4.4871,4.4975,4.5036,4.514,4.5227,4.5392,4.5458,4.5557,4.5566,4.5632,4.5581,4.557,4.5572,4.5569,4.5579,4.5642,4.5644,4.5645,4.5646,0,4.4457,4.4479,4.4567,4.4666,4.4739,4.4818,4.4897,4.4943,4.5004,4.5075,4.5181,4.5248,4.5381,4.5486,4.5591,4.5644,4.5657,4.566,4.5683,4.5676,4.5657,4.5673,4.5475,4.5657,4.5656,4.5655,4.5654,4.5654,4.4552,4.4622,4.4708,4.4806,4.487,4.4943,4.5016,4.5071,4.516,4.5272,4.5294,4.5407,4.5493,4.5636,4.5692,4.5782,4.5769,4.58,4.5809,4.5817,4.5822,4.5638,4.5801,4.5801,4.58,4.58,4.58,0,4.4699,4.4754,4.4844,4.4954,4.5031,4.5033,4.5121,4.5187,4.5286,4.5364,4.5449,4.5572,4.5674,4.5747,4.5852,4.591,4.5919,4.5937,4.5935,4.5948,4.5826,4.5798,4.5928,4.5928,4.5928,4.5928,4.5928,4.5928,4.4785,4.4904,4.4937,4.509,4.5145,4.5256,4.5306,4.5375,4.5438,4.5574,4.5659,4.5705,4.5783,4.5893,4.5987,4.6006,4.6046,4.6064,4.6084,4.5969,4.5956,4.5943,4.5918,4.6071,4.6071,4.6199,4.6201,4.6202]}]]